Regional Weather Roundup
Issued by NWS Lake Charles, LA

Home | Current Version | Previous Version | Text Only | Print | Product List | Glossary On
Versions: 1 2 3 4 5 6 7 8 9 10 11 12 13 14 15 16 17 18 19 20 21 22 23 24 25 26 27 28 29 30 31 32 33 34 35 36 37 38 39 40 41 42 43 44 45 46 47 48 49 50
000
ASUS44 KLCH 160910
RWRLCH
RWRLCH
REGIONAL WEATHER ROUNDUP
NATIONAL WEATHER SERVICE LAKE CHARLES LA
400 AM CDT TUE SEP 16 2014

Note: "fair" indicates few or no clouds below 12,000 feet with no
significant weather and/or obstructions to visibility.


ACROSS SOUTHEAST TEXAS

CITY           SKY/WX    TMP DP  RH WIND       PRES   REMARKS
BEAUMONT       CLEAR     79  76  90 NE7       30.04F
BEAUMONT CITY    N/A     76  74  96 CALM      30.05F
ORANGE         MOSUNNY   76  76 100 NW3       30.06F
JASPER         CLOUDY    74  72  91 CALM      30.09S
$$

ACROSS CENTRAL LOUISIANA

CITY           SKY/WX    TMP DP  RH WIND       PRES   REMARKS
LEESVILLE      PTCLDY    75  72  90 NE5       30.07S
FULLERTON        N/A     76  72  87 CALM      30.05F
ALEXANDRIA INT CLOUDY    75  71  87 N3        30.06F
ESLER FIELD    CLOUDY    76  71  85 NE3       30.08S
DERIDDER         N/A     75  73  95 CALM      30.08F FOG
OAKDALE        MOSUNNY   73  72  96 CALM      30.06F FOG
OPELOUSAS        N/A     72  72  99 CALM      30.06S FOG
$$

ACROSS SOUTHWEST AND SOUTH CENTRAL LOUISIANA

CITY           SKY/WX    TMP DP  RH WIND       PRES   REMARKS
SULPHUR        MOSUNNY   77  75  93 CALM      30.05F
LAKE CHARLES   MOCLDY    76  73  91 E3        30.05F
CHENNAULT INT  PTCLDY    75  72  90 CALM      30.06F
CAMERON PHI    SUNNY     79  77  94 NE5       30.07F
DEQUINCY         N/A     74  73  97 CALM      30.06S
JENNINGS         N/A     73  72  96 CALM      30.05F
LAFAYETTE      PTCLDY    74  74 100 CALM      30.06F FOG
NEW IBERIA     CLEAR     75  73  93 CALM      30.07S
ABBEVILLE        N/A     71  71  99 CALM      30.06S FOG
PATTERSON      CLEAR     75  73  94 NE3       30.08F
SALT POINT       N/A     80  77  90 CALM      30.05F
$$

SELECTED SITES ACROSS THE REGION

CITY           SKY/WX    TMP DP  RH WIND       PRES   REMARKS
HOUSTON BUSH   MOCLDY    76  74  93 NE5       30.04F
HOUSTON HOBBY  MOCLDY    79  77  94 NE7       30.03F
GALVESTON      PTCLDY    82  77  84 E7        30.03F
COLLEGE STAT   MOCLDY    76  72  87 NE6       30.06F
CONROE         MOCLDY    75  73  93 CALM      30.06F
HUNTSVILLE     MOCLDY    74  71  91 CALM      30.08F
LUFKIN         MOCLDY    77  73  87 CALM      30.08F
SHREVEPORT     CLOUDY    74  69  85 NE3       30.10S
MONROE         CLOUDY    73  68  84 N6        30.10F
NATCHEZ MS     CLOUDY    73  72  94 CALM      30.09S
BATON ROUGE    PTCLDY    74  73  97 CALM      30.06F
N.O. INTL ARPT PTCLDY    77  74  90 CALM      30.05F
SLIDELL        CLEAR     74  72  93 CALM      30.05F
$$

MARINE REPORTS

STATION/POSITION TIME  TEMP    WIND        PRES    VSBY  WAVE
                       AIR SEA DIR/SP/G                  HT/PER
                 (UTC) (F)     (DEG/KT/KT) (MB)    (MI)  (FT/S)
BUOY 30 S HIGH I 0900   81 85  150/ 14/ 16 1016.6F         2/ 5
SEA RIM ST PARK  0900   78      50/  2/  3 1017.8F
PORT ARTHUR      0900      84   50/  1/  3 1017.4S
SABINE PASS N    0900   79 83   30/  4/  7 1017.4S
TEXAS POINT      0900   82 83  160/  9/ 10 1017.4S
CALCASIEU PASS   0900   78 83   80/  5/  6 1018.3S
LK CHARLES BEACH 0900   78 81              1017.6S
MARSH ISLAND     NOT AVBL
FRESH WATER LOCK 0900   80 85   40/  2/  3 1017.5F
AMERADA PASS     0900   79 85   CALM  /  2 1017.5F
$$



USA.gov is the U.S. government's official web portal to all federal, state and local government web resources and services.